Weather in Odesa

Ukraine / Odesa District     46°29′03″N   30°43′54″E
temp.,
°C
wind,
m/s
gust,
m/s
humid.,
%
clouds,
%
prec.,
mm/h
press.,
hPa
HPBL,
m
22 april, thu
thu2200:00+10sw46805 0.1 1018108
03:00+9sw34845 0.1 101966
06:00+9s35865 0.0 101981
09:00+11s46765 0.0 1020245
12:00+13s566811 0.0 1020678
15:00+14s67626 0.1 1020830
18:00+12s697433 0.5 1019317
21:00+12ssw7137586 0.8 1019304
23 april, fri
fri2300:00+11ssw7148184 0.0 1019316
03:00+11ssw7138287 0.0 1018297
06:00+10ssw61190100 0.0 1017249
09:00+12ssw6980100 0.7 1017340
12:00+14ssw6769100 0.1 1017651
15:00+11wnw2486100 5.3 1017213
18:00+11w3583100 3.4 1017476
21:00+8n71079100 3.7 1019537
24 april, sat
sat2400:00+7nw57851 0.0 1020402
03:00+6wnw47840 0.0 1020225
06:00+6wnw47790 0.0 1020196
09:00+9wnw47570 0.0 1022576
12:00+12nw884997 0.0 10221211
15:00+11nw794574 0.0 10221273
18:00+11nw68340 0.0 10221216
21:00+9nnw35450 0.0 1024252
25 april, sun
sun2500:00+8nnw22460 0.0 102472
03:00+8w22465 0.0 102495
06:00+7w11464 0.0 102350
09:00+9s23425 0.0 1023299
12:00+11s55445 0.0 10221000
15:00+12s674622 0.0 1021942
18:00+11s6751100 0.0 1020655
21:00+10ssw5759100 0.0 1020401
26 april, mon
mon2600:00+9sw6971100 0.2 1020437
03:00+8nnw7878100 0.3 1020742
06:00+7nnw586697 0.3 1020617
09:00+8nnw57460 0.3 1021868
12:00+11nw46360 0.0 10211654
15:00+13wnw463616 0.0 10201316
18:00+13wnw463726 0.0 10191322
21:00+10sw466097 0.0 1020246